Tracking 25648 objects as of 17-May-2022
HD Live streaming from Space Station
objects crossing your sky now

STARLINK-1720

Track STARLINK-1720 now!
10-day predictions
STARLINK-1720 is classified as:


NORAD ID: 46675
Int'l Code: 2020-073F
Perigee: 553.3 km
Apogee: 555.5 km
Inclination: 53.1 °
Period: 95.6 minutes
Semi major axis: 6925 km
RCS: Unknown
Launch date: October 18, 2020
Source: United States (US)
Launch site: AIR FORCE EASTERN TEST RANGE (AFETR)
aabbcc
Your satellite tracking list
Your tracking list is empty




NASA's NSSDC Master Catalog

Two Line Element Set (TLE):
1 46675U 20073F   22136.82581271  .00009725  00000-0  67116-3 0  9995
2 46675  53.0541  14.4425 0001554  60.6578 299.4566 15.06383487 87196
Source of the keplerian elements: AFSPC